User: anonymous   Login
Location: Erdweis
(48.5167°N, 15.3500°E)
Time: 16:16:28
(UTC+00:00)
Language:

Cosmos 1743 - Orbit

View from above orbital plane
View from above orbital plane
View from above satellite
View from above satellite

Ground track
Ground track

The orbit data is extracted from the following two-line orbital elements,

1 16719U 86034A   21173.93489059  .00000762  00000-0  37924-4 0  9990
2 16719  82.5514 354.1203 0010492 235.3988 290.1999 15.16072843917556
Epoch (UTC): 22 June 2021 22:26:14
Eccentricity: 0.0010492
inclination: 82.5514°
perigee height: 510 km
apogee height: 525 km
right ascension of ascending node: 354.1203°
argument of perigee: 235.3988°
revolutions per day: 15.16072843
mean anomaly at epoch: 290.1999°
orbit number at epoch: 91755

The dashed part of the orbit path shows where the satellite is in the earth's shadow,  

DLR